COSMOS 2576

导读

COSMOS 2576是俄罗斯(CIS)于2024年5月16日从普列谢茨克航天发射场,由联盟2-1b火箭送入太空的军用卫星,进入445公里高度、倾角97.25度的太阳同步轨道。俄方未公开其具体任务,外界猜测其可能为军用测绘卫星,美国则指控该卫星疑似具备反卫星能力,且与美国侦察卫星共轨,可对美方航天器进行抵近侦察。

Basic Information
目录编号:
59773
目录名称:
COSMOS 2576
国际标识:
2024-092A
轨道中心:
EARTH
卫星名称:
COSMOS 2576
卫星全名:
--
卫星状态:
在轨 (已飞行851 天)
发射日期:
2024-05-16 UTC
国别 :
俄罗斯(独联体) (CIS)
星等 :
--
This satellite is enrolled in the Space Conjunction Data Service (SCDS) and the current flight risk assessment level is: No High Risk
Orbit Information
数据来源 国际轨道数据
星历时间: 2026-09-14T02:24:02+0800
7小时前
查看轨道信息
半长轴: 6881.197km
偏心率: 0.0013597
轨道倾角: 97.446°
近地点辐角 66.621°
升交点赤经 11.585°
平近点角 293.646°
近地点: 493.703km
远地点: 512.417km
周期: 94.679分钟
每日圈数: 15.209215
Detailed Information
使用方式:
暂无
2D Orbit Map
3D Orbit Map
Orbit Altitude Analysis Chart
Orbit Inclination Analysis Chart
Orbit Comprehensive Analysis Chart
View Comprehensive Chart
Conjunction Data List
Event ID Objects TCA Miss Dist (km) Collision Risk Probability Collision Risk Index (CRI) Action
CDM_260916-091305-977306-739221
HAWK-13A (67392)
2026-09-16T
09:13:01+0000
1.424 km
极远距离
7.232651E-6 低风险 0.52
CDM_260908-184604-697905-977323
2026-09-08T
18:46:13+0000
2.405 km
极远距离
1.54146E-6 低风险 0.39
Miss Distance Evolution Trend with All Objects
Collision Probability Evolution Trend with All Objects